[[{"header":{"parameterUnit":"m.s-1","parameterCategory":1,"la1":30.2991,"la2":30.254,"lo1":-89.0895,"lo2":-89.0444,"dy":0.0017,"dx":0.0017,"nx":28,"ny":28,"refTime":"2024-04-04T21:00:00:Z","depth":0,"parameterNumber":2,"parameterNumberName":"U-component_of_WINDS"},"data":[0,0,0,0,0,0,0,0,0,0,0,0,0,0,0,0,0,0,0,0,0,0,0,0,0,0,0,0,0,0,0,0,0,0,0,0,0,0,0,0,0,0,0,0,0,0,0,0,0,0,0,0,0,0,0,0,0,0,-5.3011,-5.3011,0,-5.2995,-5.2995,-5.2994,-5.2857,-5.2853,-5.285,-5.2847,-5.2832,-5.2835,-5.2837,0,0,0,0,0,0,0,0,0,0,0,0,0,-5.2924,-5.2926,-5.3011,-5.3011,-5.301,-5.2995,-5.2995,-5.2994,-5.2857,-5.2853,-5.2849,-5.2845,-5.2831,-5.2834,-5.2838,0,0,0,0,0,0,0,0,0,0,0,0,0,-5.294,-5.2927,-5.3011,-5.294,-5.2934,-5.2995,-5.2995,-5.2994,-5.2858,-5.2853,-5.2848,-5.2843,-5.283,-5.2834,-5.2838,-5.2967,0,0,-5.2851,-5.2853,0,0,0,0,0,0,0,0,-5.294,-5.2944,-5.2951,-5.2945,-5.2938,-5.2922,-5.2958,-5.2985,-5.286,-5.2887,-5.2847,-5.2841,-5.2866,-5.2867,-5.2876,-5.2966,-5.2965,-5.2851,-5.2854,-5.2856,-5.2857,0,0,0,0,0,0,0,-5.2939,-5.2944,-5.3004,-5.2951,-5.2943,-5.291,-5.2906,-5.2963,-5.2906,-5.2884,-5.2874,-5.2874,-5.2862,-5.2872,-5.2874,-5.2965,-5.2851,-5.2855,-5.2858,-5.2859,-5.316,-5.3165,0,0,0,0,0,0,-5.2947,-5.2943,-5.3005,-5.3004,-5.2926,-5.2915,-5.2912,-5.2933,-5.2905,-5.2895,-5.2878,-5.2868,-5.2867,-5.2869,-5.2873,-5.3021,-5.2856,-5.286,-5.2862,-5.3155,-5.3161,-5.3167,0,0,0,0,0,0,-5.2946,-5.2954,-5.3006,-5.2971,-5.2975,-5.2922,-5.2947,-5.2935,-5.2945,-5.29,-5.289,-5.2899,-5.2863,-5.2867,-5.2944,-5.3019,-5.2861,-5.2865,-5.3148,-5.3157,-5.3164,-5.3319,0,0,0,0,0,0,-5.2944,-5.2954,-5.3002,-5.2973,-5.2977,-5.3077,-5.2952,-5.2938,-5.2952,-5.2938,-5.2917,-5.2908,-5.286,-5.2939,-5.2948,-5.3022,-5.2869,-5.3141,-5.3152,-5.3162,-5.3307,-5.3332,-5.3353,0,0,0,0,0,-5.2941,-5.3047,-5.3005,-5.3013,-5.3036,-5.3081,-5.3084,-5.3025,-5.2959,-5.3007,-5.2978,-5.2909,-5.301,-5.2948,-5.2958,-5.3033,-5.3136,-5.3149,-5.3161,-5.3297,-5.3327,-5.3352,0,0,0,0,0,0,-5.3086,-5.3041,-5.2995,-5.3094,-5.3093,-5.3058,-5.3116,-5.3059,-5.3076,-5.3062,-5.2989,-5.2986,-5.3074,-5.3061,-5.2993,-5.3156,-5.3061,-5.3076,-5.3161,-5.3189,-5.3211,-5.3212,-5.2872,0,0,0,0,0,-5.3129,-5.317,-5.3129,-5.322,-5.3222,-5.317,-5.3187,-5.3142,-5.3138,-5.3137,-5.3114,-5.3113,-5.3144,-5.3166,-5.3192,-5.3305,-5.3298,-5.3362,-5.3385,-5.3404,-5.3417,-5.3476,-5.3504,-5.3208,-5.3208,-5.3207,0,0,-5.3219,-5.32,-5.323,-5.3249,-5.3242,-5.3286,-5.317,-5.3221,-5.3253,-5.3145,-5.3215,-5.3199,-5.3193,-5.3289,-5.333,-5.3281,-5.3498,-5.3419,-5.3435,-5.3438,-5.3491,-5.352,-5.3545,-5.3216,-5.3214,-5.3213,0,0,-5.3405,-5.3395,-5.347,-5.3466,-5.3458,-5.3422,-5.3441,-5.3415,-5.34,-5.347,-5.339,-5.3427,-5.3483,-5.3481,-5.3488,-5.3676,-5.3613,-5.3686,-5.3805,-5.3863,-5.3886,-5.3907,-5.3973,-5.3998,-5.37,-5.3701,-5.3701,0,-5.3518,-5.358,-5.3516,-5.3572,-5.3583,-5.3487,-5.3562,-5.3562,-5.3563,-5.3573,-5.3518,-5.3586,-5.3575,-5.3669,-5.3715,-5.3724,-5.3742,-5.3688,-5.3888,-5.3908,-5.3926,-5.3988,-5.4014,-5.3709,-5.3708,-5.3707,-5.3707,0,-5.372,-5.3764,-5.3826,-5.3829,-5.3846,-5.3913,-5.3858,-5.3884,-5.3839,-5.381,-5.3883,-5.3867,-5.3888,-5.3907,-5.3863,-5.3995,-5.3965,-5.3901,-5.3803,-5.3964,-5.4022,-5.4045,-5.3722,-5.3719,-5.3716,-5.3714,0,0,-5.3995,-5.3962,-5.3986,-5.3986,-5.397,-5.4004,-5.4066,-5.4086,-5.411,-5.4115,-5.4165,-5.4214,-5.4154,-5.4162,-5.4117,-5.4169,-5.4318,-5.4097,-5.4096,-5.4139,-5.4463,-5.4511,-5.454,-5.4277,-5.4281,-5.4284,-5.4463,0,-5.4173,-5.4276,-5.4221,-5.4332,-5.4372,-5.4282,-5.4336,-5.4333,-5.4308,-5.4339,-5.4311,-5.4347,-5.4266,-5.427,-5.4317,-5.429,-5.4382,-5.4276,-5.4322,-5.4325,-5.4326,-5.4569,-5.462,-5.4789,-5.4485,-5.4489,-5.4492,0,-5.4395,-5.4409,-5.4524,-5.4501,-5.4515,-5.4565,-5.4579,-5.461,-5.4605,-5.4583,-5.4593,-5.4536,-5.4595,-5.45,-5.4582,-5.4511,-5.4527,-5.4517,-5.4522,-5.4523,-5.4417,-5.4577,-5.4842,-5.4867,-5.4527,-5.4524,-5.4521,0,-5.4584,-5.4631,-5.4706,-5.4709,-5.4684,-5.4721,-5.4713,-5.4702,-5.4718,-5.4731,-5.4741,-5.4762,-5.4773,-5.479,-5.4741,-5.4676,-5.4829,-5.4729,-5.4812,-5.4814,-5.4848,-5.4846,-5.5119,-5.486,-5.486,-5.4859,-5.4859,0,-5.4788,-5.4862,-5.479,-5.4836,-5.4916,-5.4852,-5.4933,-5.4915,-5.4907,-5.4948,-5.4873,-5.4913,-5.4845,-5.4879,-5.4841,-5.4914,-5.492,-5.4904,-5.4893,-5.491,-5.4912,-5.4919,-5.4905,-5.4866,-5.4864,-5.4863,-5.4862,0,-5.5012,-5.4967,-5.5042,-5.5013,-5.5007,-5.5068,-5.5042,-5.5084,-5.5054,-5.5108,-5.5117,-5.507,-5.5106,-5.5059,-5.509,-5.5065,-5.5165,-5.5136,-5.5166,-5.5158,-5.5243,-5.5235,-5.5528,-5.5564,-5.5284,-5.5287,-5.5289,0,-5.5144,-5.5199,-5.5176,-5.5198,-5.5194,-5.523,-5.5246,-5.5186,-5.5206,-5.5204,-5.5247,-5.5276,-5.5296,-5.5359,-5.5328,-5.5352,-5.5323,-5.5424,-5.5326,-5.5342,-5.5324,-5.5321,-5.5326,-5.5444,-5.5447,-5.545,-5.5452,0,-5.5385,-5.536,-5.5386,-5.5405,-5.5426,-5.5438,-5.5444,-5.5466,-5.5403,-5.543,-5.5465,-5.5482,-5.5514,-5.5544,-5.556,-5.5552,-5.5493,-5.5484,-5.5504,-5.5522,-5.5537,-5.5529,-5.522,-5.5477,-5.5475,-5.5473,-5.5471,-5.547,-5.5566,-5.561,-5.5601,-5.5633,-5.5631,-5.5639,-5.5676,-5.5652,-5.568,-5.5701,-5.5665,-5.571,-5.5704,-5.5719,-5.5718,-5.5753,-5.5709,-5.5739,-5.5746,-5.5754,-5.5767,-5.5533,-5.5756,-5.5755,-5.5754,-5.5754,-5.5753,0,-5.5802,-5.5792,-5.5821,-5.5832,-5.5858,-5.5799,-5.5803,-5.5828,-5.5869,-5.5868,-5.589,-5.5932,-5.5961,-5.5934,-5.5958,-5.5991,-5.5965,-5.6,-5.5996,-5.5995,-5.5805,-5.5785,-5.6021,-5.6021,-5.6021,-5.6021,-5.6021,-5.6021,-5.5927,-5.5999,-5.5974,-5.6044,-5.6033,-5.6077,-5.6084,-5.6091,-5.609,-5.614,-5.6164,-5.6146,-5.6135,-5.6158,-5.6182,-5.6173,-5.6186,-5.623,-5.6212,-5.6035,-5.6009,-5.5983,-5.5964,-5.6234,-5.6234,-5.6399,-5.64,-5.6402]},{"header":{"parameterUnit":"m.s-1","parameterCategory":1,"la1":30.2991,"la2":30.254,"lo1":-89.0895,"lo2":-89.0444,"dy":0.0017,"dx":0.0017,"nx":28,"ny":28,"refTime":"2024-04-04T21:00:00:Z","depth":0,"parameterNumber":3,"parameterNumberName":"V-component_of_WINDS"},"data":[0,0,0,0,0,0,0,0,0,0,0,0,0,0,0,0,0,0,0,0,0,0,0,0,0,0,0,0,0,0,0,0,0,0,0,0,0,0,0,0,0,0,0,0,0,0,0,0,0,0,0,0,0,0,0,0,0,0,-0.0006,-0.0007,0,-0.0044,-0.0045,-0.0045,-0.0059,-0.0059,-0.0059,-0.0059,-0.0099,-0.01,-0.0102,0,0,0,0,0,0,0,0,0,0,0,0,0,0.0055,0.0054,-0.0006,-0.0007,-0.0007,-0.0044,-0.0045,-0.0045,-0.0059,-0.0059,-0.0059,-0.0059,-0.0099,-0.01,-0.0102,0,0,0,0,0,0,0,0,0,0,0,0,0,0.0024,0.0054,-0.0006,-0.0018,-0.002,-0.0044,-0.0045,-0.0046,-0.0059,-0.0059,-0.0059,-0.0059,-0.0098,-0.01,-0.0102,-0.0117,0,0,-0.0107,-0.0108,0,0,0,0,0,0,0,0,0.0025,0.0021,-0.0016,-0.0018,-0.0019,-0.0047,-0.0038,-0.007,-0.0059,-0.0044,-0.0059,-0.0058,-0.0082,-0.0085,-0.0093,-0.0119,-0.0121,-0.0108,-0.0109,-0.0109,-0.011,0,0,0,0,0,0,0,0.0028,0.0023,-0.0021,-0.0017,-0.0019,-0.0022,-0.0026,-0.0044,-0.0064,-0.0046,-0.0047,-0.0051,-0.0083,-0.0091,-0.0094,-0.0122,-0.0108,-0.0109,-0.011,-0.0111,-0.0161,-0.0161,0,0,0,0,0,0,0.0032,0.0025,-0.002,-0.0023,0.0004,-0.0023,-0.0028,-0.0038,-0.0064,-0.0067,-0.0051,-0.0051,-0.0088,-0.0092,-0.0095,-0.0114,-0.0109,-0.0111,-0.0112,-0.0161,-0.0161,-0.0161,0,0,0,0,0,0,0.0033,0.0028,-0.0019,0.0001,-0.0005,-0.0025,-0.0036,-0.0039,-0.0047,-0.0068,-0.0072,-0.0056,-0.0088,-0.0093,-0.0111,-0.0116,-0.0112,-0.0114,-0.016,-0.0161,-0.0161,-0.0152,0,0,0,0,0,0,0.0035,0.0029,0.0022,0.0001,-0.0006,-0.0034,-0.0036,-0.004,-0.005,-0.0051,-0.0073,-0.0077,-0.0088,-0.0108,-0.0113,-0.0118,-0.0115,-0.016,-0.016,-0.0161,-0.0152,-0.0153,-0.0153,0,0,0,0,0,0.0037,0.0026,0.0022,0.0017,-0.0014,-0.0034,-0.0038,-0.0051,-0.0051,-0.0057,-0.007,-0.0076,-0.0114,-0.011,-0.0116,-0.0121,-0.016,-0.016,-0.0161,-0.0152,-0.0152,-0.0153,0,0,0,0,0,0,0.0046,0.0023,0.0018,-0.0001,-0.0015,-0.0036,-0.0045,-0.0051,-0.0066,-0.0066,-0.0082,-0.0086,-0.0103,-0.0114,-0.0109,-0.0137,-0.0137,-0.0139,-0.0129,-0.0129,-0.0129,-0.0127,-0.0117,0,0,0,0,0,0.0046,0.0032,0.0012,-0.0003,-0.0009,-0.0026,-0.0035,-0.0043,-0.0059,-0.0065,-0.008,-0.0095,-0.0111,-0.0121,-0.0136,-0.0154,-0.0158,-0.016,-0.016,-0.016,-0.0162,-0.0171,-0.0171,-0.0163,-0.0163,-0.0163,0,0,0.0045,0.0031,0.0023,-0.0001,-0.0013,-0.0027,-0.0031,-0.0046,-0.0056,-0.0068,-0.0086,-0.0097,-0.0115,-0.0133,-0.0141,-0.0142,-0.0165,-0.0161,-0.0161,-0.0162,-0.0171,-0.0172,-0.0173,-0.0163,-0.0163,-0.0163,0,0,0.0037,0.0025,0.0011,-0.0,-0.0018,-0.0029,-0.0032,-0.0052,-0.0059,-0.0077,-0.0086,-0.0098,-0.0125,-0.0137,-0.0147,-0.0157,-0.0163,-0.0162,-0.0162,-0.0171,-0.0172,-0.0172,-0.0176,-0.0177,-0.0163,-0.0163,-0.0163,0,0.0038,0.0017,0.0005,-0.0009,-0.0019,-0.0028,-0.0041,-0.0052,-0.0075,-0.0081,-0.0082,-0.0114,-0.0127,-0.0147,-0.015,-0.0157,-0.0161,-0.016,-0.017,-0.0171,-0.0172,-0.0175,-0.0177,-0.0163,-0.0163,-0.0163,-0.0163,0,0.002,0.0006,-0.0003,-0.0023,-0.0034,-0.0047,-0.0061,-0.007,-0.0077,-0.0087,-0.0105,-0.012,-0.0138,-0.0144,-0.0151,-0.0165,-0.0164,-0.0167,-0.0168,-0.0172,-0.0176,-0.0177,-0.0162,-0.0162,-0.0162,-0.0162,0,0,0.0015,-0.001,-0.0013,-0.0022,-0.0042,-0.0053,-0.0066,-0.0083,-0.0091,-0.0105,-0.0117,-0.0138,-0.014,-0.0151,-0.0159,-0.0167,-0.0173,-0.0169,-0.017,-0.0169,-0.0188,-0.0186,-0.0187,-0.0177,-0.0177,-0.0178,-0.0187,0,0.0004,-0.002,-0.003,-0.005,-0.0063,-0.0071,-0.0083,-0.0096,-0.0105,-0.0117,-0.0128,-0.0143,-0.0145,-0.0151,-0.0159,-0.0171,-0.0177,-0.017,-0.0188,-0.0188,-0.0183,-0.0189,-0.0187,-0.0195,-0.0188,-0.0188,-0.0189,0,-0.0012,-0.0026,-0.0046,-0.0062,-0.0068,-0.0079,-0.0094,-0.0106,-0.012,-0.0127,-0.0138,-0.0145,-0.0159,-0.0158,-0.0178,-0.0173,-0.018,-0.0187,-0.0187,-0.019,-0.0189,-0.0192,-0.0198,-0.0199,-0.0191,-0.0191,-0.0191,0,-0.0013,-0.0037,-0.0051,-0.0059,-0.0079,-0.0085,-0.0094,-0.0108,-0.0117,-0.0131,-0.0137,-0.0152,-0.016,-0.0172,-0.0183,-0.0181,-0.0201,-0.0201,-0.0206,-0.0206,-0.021,-0.021,-0.0218,-0.0215,-0.0215,-0.0215,-0.0215,0,-0.0024,-0.0036,-0.0052,-0.0061,-0.0075,-0.0086,-0.0099,-0.0108,-0.012,-0.0131,-0.014,-0.015,-0.0164,-0.0176,-0.0184,-0.0198,-0.0202,-0.0208,-0.021,-0.0207,-0.0206,-0.0213,-0.0212,-0.0215,-0.0215,-0.0215,-0.0215,0,-0.0028,-0.0039,-0.0056,-0.0073,-0.0077,-0.0086,-0.0101,-0.011,-0.0119,-0.0132,-0.0136,-0.015,-0.0165,-0.0177,-0.0196,-0.0201,-0.0216,-0.0219,-0.0211,-0.0212,-0.0216,-0.0215,-0.0229,-0.0231,-0.0226,-0.0226,-0.0226,0,-0.0035,-0.0044,-0.0061,-0.0069,-0.0077,-0.0089,-0.0098,-0.0109,-0.0118,-0.0134,-0.0141,-0.0155,-0.0167,-0.0189,-0.0202,-0.0216,-0.0219,-0.0222,-0.0221,-0.0217,-0.0219,-0.0218,-0.0219,-0.0223,-0.0223,-0.0223,-0.0223,0,-0.0045,-0.0049,-0.0061,-0.0075,-0.0085,-0.0096,-0.0108,-0.0113,-0.0126,-0.0136,-0.0149,-0.0159,-0.0177,-0.0191,-0.0206,-0.0215,-0.0221,-0.0223,-0.0224,-0.0222,-0.0217,-0.0219,-0.0211,-0.0223,-0.0223,-0.0223,-0.0223,-0.0223,-0.005,-0.0058,-0.0071,-0.0084,-0.0093,-0.0104,-0.0112,-0.0122,-0.0133,-0.0149,-0.0154,-0.0168,-0.0182,-0.0202,-0.0211,-0.0222,-0.0223,-0.0226,-0.0227,-0.0227,-0.0226,-0.0214,-0.0225,-0.0225,-0.0225,-0.0225,-0.0225,0,-0.006,-0.0069,-0.008,-0.0095,-0.0105,-0.0108,-0.0121,-0.0129,-0.0141,-0.0152,-0.0164,-0.0179,-0.0192,-0.0205,-0.0218,-0.0225,-0.0228,-0.0228,-0.0228,-0.023,-0.0225,-0.0222,-0.0225,-0.0225,-0.0225,-0.0225,-0.0225,-0.0225,-0.0067,-0.008,-0.0086,-0.0104,-0.0112,-0.0125,-0.0132,-0.0141,-0.015,-0.0167,-0.0177,-0.0185,-0.0197,-0.0211,-0.0223,-0.0227,-0.0231,-0.0231,-0.0235,-0.023,-0.023,-0.023,-0.0227,-0.0232,-0.0232,-0.0239,-0.0239,-0.0239]}]]